This is the latest recevied weather packets stored in our database for station/object KD8NVS-13. If no packets are shown the sender has not sent any weather packets the latest 10 day(s).
| Time | Temp. | Humidity | Pressure | Rain* | Wind** | Luminosity | Snow |
|---|---|---|---|---|---|---|---|
| 1778171711 | 12.78° C | 45% | 1004.5 hPa | 0 mm | - | 69 W/m² | - |
| 1778171409 | 12.78° C | 49% | 1004.2 hPa | 0 mm | - | 69 W/m² | - |
| 1778171104 | 12.78° C | 48% | 1004.2 hPa | 0 mm | - | 72 W/m² | - |
| 1778170801 | 12.78° C | 47% | 1004.5 hPa | 0 mm | - | 71 W/m² | - |
| 1778170497 | 12.78° C | 45% | 1004.2 hPa | 0 mm | - | 71 W/m² | - |
| 1778170194 | 12.78° C | 46% | 1004.2 hPa | 0 mm | - | 73 W/m² | - |
| 1778169890 | 12.78° C | 46% | 1004.5 hPa | 0 mm | - | 72 W/m² | - |
| 1778169586 | 12.78° C | 46% | 1004.2 hPa | 0 mm | - | 74 W/m² | - |
| 1778169282 | 12.78° C | 48% | 1004.2 hPa | 0 mm | - | 80 W/m² | - |
| 1778168979 | 12.78° C | 47% | 1004.2 hPa | 0 mm | - | 720 W/m² | - |
| 1778168675 | 12.22° C | 50% | 1004.2 hPa | 0 mm | - | 782 W/m² | - |
| 1778168373 | 12.22° C | 48% | 1003.8 hPa | 0 mm | - | 775 W/m² | - |
| 1778168070 | 12.22° C | 48% | 1004.2 hPa | 0 mm | - | 767 W/m² | - |
| 1778167766 | 12.78° C | 46% | 1004.2 hPa | 0 mm | - | 761 W/m² | - |
| 1778167462 | 12.78° C | 50% | 1003.8 hPa | 0 mm | - | 748 W/m² | - |
| 1778167158 | 12.22° C | 49% | 1003.8 hPa | 0 mm | - | 723 W/m² | - |
| 1778166855 | 12.22° C | 48% | 1003.8 hPa | 0 mm | - | 721 W/m² | - |
| 1778166552 | 12.22° C | 49% | 1003.8 hPa | 0 mm | - | 709 W/m² | - |
| 1778166248 | 12.22° C | 48% | 1004.2 hPa | 0 mm | - | 702 W/m² | - |
| 1778165945 | 12.22° C | 48% | 1004.2 hPa | 0 mm | - | 682 W/m² | - |
| 1778165641 | 12.22° C | 50% | 1004.2 hPa | 0 mm | - | 664 W/m² | - |
| 1778165338 | 12.22° C | 51% | 1004.2 hPa | 0 mm | - | 607 W/m² | - |
| 1778165035 | 11.67° C | 51% | 1004.2 hPa | 0 mm | - | 649 W/m² | - |
| 1778164732 | 11.67° C | 50% | 1004.2 hPa | 0 mm | - | 652 W/m² | - |
| 1778164429 | 11.67° C | 52% | 1004.2 hPa | 0 mm | - | 632 W/m² | - |
* Rain latest hour (hover to see other rain measurements)
** Current wind speed in m/s (hover to see current wind gust speed)